• In Belarus
  • List of Countries
  • For 7 days
  • Water Temperature
  • Satellite Maps
  • Weather Map
  • Weather Widgets
  • user-avatar
    Login

    Hourly Weather Qala i Naw

    Today, 18 January, Friday

    Time Temperature Precipitation Wind Pressure Humidity
    00:00 +17°C° 0 mm 9 mps 674 mmHg 35%
    01:00 +16°C° 0 mm 10 mps 674 mmHg 36%
    02:00 +16°C° 0 mm 9 mps 674 mmHg 36%
    03:00 +16°C° 0 mm 8 mps 674 mmHg 37%
    04:00 +16°C° 0 mm 8 mps 674 mmHg 38%
    05:00 +15°C° 0 mm 7 mps 674 mmHg 41%
    06:00 +14°C° 0 mm 6 mps 675 mmHg 44%
    07:00 +13°C° 0 mm 5 mps 676 mmHg 47%
    08:00 +13°C° 0 mm 5 mps 676 mmHg 42%
    09:00 +14°C° 0 mm 6 mps 677 mmHg 37%
    10:00 +14°C° 0 mm 6 mps 677 mmHg 32%
    11:00 +14°C° 0 mm 6 mps 677 mmHg 30%
    12:00 +15°C° 0 mm 6 mps 677 mmHg 28%
    13:00 +15°C° 0 mm 6 mps 677 mmHg 26%
    14:00 +15°C° 0 mm 5 mps 678 mmHg 25%
    15:00 +15°C° 0 mm 5 mps 678 mmHg 23%
    16:00 +14°C° 0 mm 5 mps 678 mmHg 22%
    17:00 +13°C° 0 mm 4 mps 678 mmHg 26%
    18:00 +12°C° 0 mm 4 mps 679 mmHg 30%
    19:00 +10°C° 0 mm 3 mps 679 mmHg 34%
    20:00 +10°C° 0 mm 2 mps 679 mmHg 37%
    21:00 +9°C° 0 mm 2 mps 679 mmHg 39%
    22:00 +9°C° 0 mm 1 mps 679 mmHg 42%
    23:00 +9°C° 0 mm 1 mps 680 mmHg 43%

    Tomorrow, 19 January, Saturday

    Time Temperature Precipitation Wind Pressure Humidity
    00:00 +9°C° 0 mm 1 mps 680 mmHg 44%
    01:00 +8°C° 0 mm 1 mps 680 mmHg 45%
    02:00 +8°C° 0 mm 1 mps 679 mmHg 46%
    03:00 +7°C° 0 mm 1 mps 679 mmHg 47%
    04:00 +7°C° 0 mm 1 mps 679 mmHg 49%
    05:00 +6°C° 0 mm 1 mps 679 mmHg 52%
    06:00 +6°C° 0 mm 1 mps 679 mmHg 56%
    07:00 +5°C° 0 mm 1 mps 679 mmHg 60%
    08:00 +6°C° 0 mm 1 mps 679 mmHg 58%
    09:00 +6°C° 0 mm 2 mps 679 mmHg 57%
    10:00 +6°C° 0 mm 2 mps 679 mmHg 55%
    11:00 +7°C° 0 mm 2 mps 678 mmHg 55%
    12:00 +7°C° 0 mm 3 mps 677 mmHg 56%
    13:00 +7°C° 0 mm 3 mps 677 mmHg 56%
    14:00 +7°C° 0 mm 3 mps 677 mmHg 58%
    15:00 +7°C° 0 mm 3 mps 677 mmHg 60%
    16:00 +7°C° 0 mm 3 mps 677 mmHg 61%
    17:00 +5°C° 0 mm 3 mps 678 mmHg 64%
    18:00 +5°C° 0 mm 3 mps 678 mmHg 66%
    19:00 +5°C° 0 mm 2 mps 679 mmHg 68%
    20:00 +5°C° 0 mm 2 mps 679 mmHg 71%
    21:00 +4°C° 0 mm 2 mps 679 mmHg 73%
    22:00 +3°C° 0 mm 3 mps 680 mmHg 75%
    23:00 +2°C° 0.2 mm 3 mps 680 mmHg 78%

    Day after tomorrow, 20 January, Sunday

    Time Temperature Precipitation Wind Pressure Humidity
    00:00 +2°C° 0.2 mm 3 mps 680 mmHg 81%
    01:00 +2°C° 0.2 mm 3 mps 680 mmHg 85%
    02:00 +1°C° 0.8 mm 3 mps 680 mmHg 88%
    03:00 +1°C° 0.8 mm 3 mps 680 mmHg 91%
    04:00 0°C° 0.8 mm 3 mps 680 mmHg 95%
    05:00 0°C° 0.5 mm 3 mps 680 mmHg 95%
    06:00 0°C° 0.5 mm 3 mps 681 mmHg 95%
    07:00 -1°C° 0.5 mm 3 mps 681 mmHg 96%
    08:00 -1°C° 0.3 mm 2 mps 681 mmHg 95%
    09:00 -1°C° 0.3 mm 2 mps 682 mmHg 94%
    10:00 -1°C° 0.3 mm 2 mps 682 mmHg 93%
    11:00 +1°C° 0.1 mm 2 mps 682 mmHg 91%
    12:00 +1°C° 0.1 mm 2 mps 682 mmHg 88%
    13:00 +1°C° 0.1 mm 3 mps 682 mmHg 85%
    14:00 +2°C° 0 mm 2 mps 682 mmHg 83%
    15:00 +2°C° 0 mm 2 mps 682 mmHg 80%
    16:00 +2°C° 0 mm 2 mps 682 mmHg 78%
    17:00 +2°C° 0 mm 2 mps 683 mmHg 79%
    18:00 +2°C° 0 mm 1 mps 683 mmHg 80%
    19:00 +2°C° 0 mm 1 mps 684 mmHg 81%
    20:00 +2°C° 0 mm 1 mps 684 mmHg 82%
    21:00 0°C° 0 mm 0 mps 684 mmHg 83%
    22:00 0°C° 0 mm 0 mps 684 mmHg 84%
    23:00 0°C° 0 mm 0 mps 684 mmHg 84%

    21 January, Monday

    Time Temperature Precipitation Wind Pressure Humidity
    00:00 0°C° 0 mm 0 mps 684 mmHg 83%
    01:00 -1°C° 0 mm 0 mps 684 mmHg 83%
    02:00 -1°C° 0 mm 0 mps 684 mmHg 82%
    03:00 -1°C° 0 mm 0 mps 683 mmHg 82%
    04:00 -1°C° 0 mm 0 mps 683 mmHg 82%
    05:00 -1°C° 0 mm 0 mps 684 mmHg 82%
    06:00 -1°C° 0 mm 0 mps 684 mmHg 81%
    07:00 -1°C° 0 mm 0 mps 684 mmHg 81%
    08:00 0°C° 0 mm 0 mps 684 mmHg 77%
    09:00 +1°C° 0 mm 1 mps 684 mmHg 73%
    10:00 +2°C° 0 mm 1 mps 684 mmHg 68%
    11:00 +3°C° 0 mm 1 mps 683 mmHg 67%
    12:00 +2°C° 0 mm 2 mps 683 mmHg 65%
    13:00 +3°C° 0 mm 2 mps 682 mmHg 64%
    14:00 +3°C° 0 mm 2 mps 682 mmHg 64%
    15:00 +3°C° 0 mm 2 mps 682 mmHg 64%
    16:00 +3°C° 0 mm 2 mps 682 mmHg 64%
    17:00 +4°C° 0 mm 1 mps 682 mmHg 67%
    18:00 +3°C° 0 mm 1 mps 682 mmHg 71%
    19:00 +2°C° 0 mm 0 mps 683 mmHg 74%
    20:00 +1°C° 0 mm 0 mps 682 mmHg 75%
    21:00 +1°C° 0 mm 0 mps 682 mmHg 75%
    22:00 +1°C° 0 mm 0 mps 682 mmHg 75%
    23:00 +1°C° 0 mm 0 mps 682 mmHg 75%

    22 January, Tuesday

    Time Temperature Precipitation Wind Pressure Humidity
    00:00 +1°C° 0 mm 0 mps 682 mmHg 75%
    01:00 +1°C° 0 mm 0 mps 681 mmHg 75%
    02:00 0°C° 0 mm 0 mps 681 mmHg 74%
    03:00 0°C° 0 mm 0 mps 681 mmHg 74%
    04:00 0°C° 0 mm 0 mps 681 mmHg 73%
    05:00 0°C° 0 mm 0 mps 681 mmHg 72%
    06:00 0°C° 0 mm 0 mps 681 mmHg 70%
    07:00 0°C° 0 mm 0 mps 681 mmHg 68%
    08:00 +3°C° 0 mm 1 mps 681 mmHg 61%
    09:00 +4°C° 0 mm 1 mps 681 mmHg 54%
    10:00 +6°C° 0 mm 1 mps 681 mmHg 47%
    11:00 +7°C° 0 mm 1 mps 680 mmHg 44%
    12:00 +8°C° 0 mm 1 mps 680 mmHg 40%
    13:00 +7°C° 0 mm 2 mps 679 mmHg 37%
    14:00 +7°C° 0 mm 2 mps 679 mmHg 39%
    15:00 +7°C° 0 mm 2 mps 679 mmHg 41%
    16:00 +7°C° 0 mm 2 mps 679 mmHg 43%
    17:00 +6°C° 0 mm 2 mps 679 mmHg 47%
    18:00 +7°C° 0 mm 1 mps 680 mmHg 50%
    19:00 +6°C° 0 mm 1 mps 680 mmHg 54%
    20:00 +6°C° 0 mm 1 mps 680 mmHg 53%
    21:00 +6°C° 0 mm 1 mps 681 mmHg 52%
    22:00 +6°C° 0 mm 1 mps 681 mmHg 52%
    23:00 +6°C° 0 mm 1 mps 681 mmHg 52%

    23 January, Wednesday

    Time Temperature Precipitation Wind Pressure Humidity
    00:00 +6°C° 0 mm 1 mps 681 mmHg 53%
    01:00 +6°C° 0 mm 1 mps 681 mmHg 54%
    02:00 +5°C° 0.1 mm 1 mps 681 mmHg 56%
    03:00 +5°C° 0.1 mm 1 mps 681 mmHg 58%
    04:00 +4°C° 0.1 mm 0 mps 682 mmHg 60%
    05:00 +5°C° 0.1 mm 1 mps 682 mmHg 62%
    06:00 +5°C° 0.1 mm 1 mps 682 mmHg 63%
    07:00 +4°C° 0.1 mm 1 mps 683 mmHg 65%
    08:00 +5°C° 0.1 mm 1 mps 683 mmHg 63%
    09:00 +6°C° 0.1 mm 1 mps 683 mmHg 61%
    10:00 +6°C° 0.1 mm 1 mps 684 mmHg 59%
    11:00 +6°C° 0.1 mm 1 mps 683 mmHg 57%
    12:00 +7°C° 0.1 mm 1 mps 683 mmHg 56%
    13:00 +7°C° 0.1 mm 1 mps 683 mmHg 55%
    14:00 +7°C° 0.1 mm 1 mps 682 mmHg 56%
    15:00 +7°C° 0.1 mm 1 mps 682 mmHg 56%
    16:00 +7°C° 0.1 mm 1 mps 682 mmHg 57%
    17:00 +7°C° 0.1 mm 1 mps 683 mmHg 60%
    18:00 +6°C° 0.1 mm 1 mps 683 mmHg 63%
    19:00 +6°C° 0.1 mm 1 mps 683 mmHg 66%
    20:00 +5°C° 0 mm 1 mps 683 mmHg 67%
    21:00 +3°C° 0 mm 0 mps 683 mmHg 69%
    22:00 +3°C° 0 mm 0 mps 683 mmHg 70%
    23:00 +3°C° 0 mm 0 mps 683 mmHg 70%
    Show more